User: anonymous   Login
Location: Unspecified
(0.0000°N, 0.0000°E)
Time: 08:54:36
(UTC+00:00)
Language:

USA 135 - Orbit

View from above orbital plane
View from above orbital plane
View from above satellite
View from above satellite

Ground track
Ground track

The orbit data is extracted from the following two-line orbital elements,

1 25019U 97065A   24113.36646615 -.00000052  00000-0  00000-0 0  9990
2 25019  11.8449  27.2149 0004178 343.8502 219.5839  1.00274498 25072
Epoch (UTC): 22 April 2024 08:47:42
Eccentricity: 0.0004178
inclination: 11.8449°
perigee height: 35768 km
apogee height: 35803 km
right ascension of ascending node: 27.2149°
argument of perigee: 343.8502°
revolutions per day: 1.00274498
mean anomaly at epoch: 219.5839°
orbit number at epoch: 2507

The dashed part of the orbit path shows where the satellite is in the earth's shadow,  

DLR